Location: ????
(32.1228°N, 34.8377°E)
Time: 16:40:57
(UTC+00:00)

IRIDIUM 104 - Pass Details

Date: 21 September 2020
Orbit: 776 x 779 km, 86.4° (Epoch: 24 October)

Event Time Altitude Azimuth Distance (km) Brightness Sun altitude
Rises 02:01:33 0° 351° (N) 3,262 7.6 -19.0°
Reaches altitude 10° 02:03:57 10° 347° (NNW) 2,331 6.8 -18.5°
Maximum altitude 02:08:59 50° 272° (W) 978 4.4 -17.5°
Drops below altitude 10° 02:13:59 10° 198° (SSW) 2,316 6.5 -16.5°
Sets 02:16:22 0° 193° (SSW) 3,240 7.3 -16.0°
